Location: Newark
(48.5583°N, 3.1564°W)
Time: 03:02:40
(UTC+00:00)

ISS - Visible Passes

Search period start: 20 October 2019 00:00
Search period end: 30 October 2019 00:00
Orbit: 411 x 421 km, 51.6° (Epoch: 20 October)

Date Brightness Start Highest point End Pass type
(mag) Time Alt. Az. Time Alt. Az. Time Alt. Az.
25 Oct -1.2 05:34:58 10° S 05:37:30 20° SE 05:40:03 10° E visible
26 Oct -0.8 04:47:27 10° SSE 04:49:05 13° SE 04:50:44 10° ESE visible
27 Oct -2.7 05:33:35 11° SW 05:36:43 42° SSE 05:39:55 10° ENE visible
28 Oct -2.1 04:47:24 25° SSE 04:48:10 28° SE 04:51:07 10° E visible
29 Oct -0.8 04:01:05 15° ESE 04:01:05 15° ESE 04:02:07 10° E visible
29 Oct -3.8 05:34:00 22° WSW 05:36:01 84° SSE 05:39:24 10° ENE visible
